Regional Weather Roundup
Issued by NWS Northern Indiana

Home | Current Version | Previous Version | Text Only | Print | Product List | Glossary Off
Versions: 1 2 3 4 5 6 7 8 9 10 11 12 13 14 15 16 17 18 19 20 21 22 23 24 25 26 27 28 29 30 31 32 33 34 35 36 37 38 39 40 41 42 43 44 45 46 47 48 49 50

000
ASUS43 KIWX 231110
RWRIWX

KIWX WEATHER ROUNDUP
NATIONAL WEATHER SERVICE NORTHERN INDIANA
600 AM EST TUE JAN 23 2018

NOTE: "FAIR" INDICATES FEW OR NO CLOUDS BELOW 12,000 FEET WITH NO
SIGNIFICANT WEATHER AND/OR OBSTRUCTIONS TO VISIBILITY.

* THESE STATIONS ARE NOT UNDER NWS QUALITY CONTROL. THEY ALSO MAY NOT
  REPORT WEATHER SUCH AS PRECIPITATION OR FOG.

INZ001>027-231200-
NORTHERN INDIANA

CITY           SKY/WX    TMP DP  RH WIND       PRES   REMARKS
GARY*          LGT RAIN  37  34  87 W15       29.57R
VALPARAISO     CLOUDY    37  33  85 MISG      29.58R
MICHIGAN CITY* CLOUDY    36  34  93 SW7       29.57R
LAPORTE*       CLOUDY    35  33  91 SW9       29.57R WCI  28
KNOX*          CLOUDY    36  32  87 SW12      29.58R
SOUTH BEND     CLOUDY    35  32  88 SW10      29.56R WCI  27
GOSHEN         LGT RAIN  36  33  89 SW15      29.56R
MONTICELLO*    DRIZZLE   36  35  96 SW9       29.62R
LOGANSPORT*    CLOUDY    34  34 100 SW13      29.63R WCI  25
ROCHESTER*     LGT RAIN  37  36  93 SW10      29.60R
WARSAW*        LGT RAIN  36  34  93 SW13      29.58R
AUBURN*        DRIZZLE  N/A N/A N/A SW7       29.59S
FORT WAYNE     LGT RAIN  37  35  92 SW10      29.60R
HUNTINGTON*    CLOUDY    35  34  96 SW7       29.60R WCI  29
PERU/GRISSOM   CLOUDY    35  35 100 SW14      29.61R WCI  26
MARION*        CLOUDY    35  34  96 SW7       29.63R WCI  29

$$
INZ028>050-231200-
CENTRAL INDIANA

CITY           SKY/WX    TMP DP  RH WIND       PRES   REMARKS
LAFAYETTE      CLOUDY    35  33  92 SW13      29.64R WCI  26
MUNCIE*        CLOUDY    38  34  85 SW9       29.63R
INDIANAPOLIS   CLOUDY    35  32  88 SW18      29.66R WCI  24

$$
MIZ043>046-050>051-056>058-064>065-071>073-077>080-231200-
SOUTHWEST LOWER MICHIGAN

CITY           SKY/WX    TMP DP  RH WIND       PRES   REMARKS
BATTLE CREEK   CLOUDY    37  33  85 SW12      29.52R
BENTON HARBOR  CLOUDY    37  31  78 SW10      29.54R
COLDWATER*     MIX PCPN  35  35 100 SW8       29.55R WCI  28
HILLSDALE*     RAIN      34  32  93 SW9G16    29.53R WCI  26
HOLLAND        CLOUDY    35  32  88 W13       29.49R WCI  26
GRAND RAPIDS   CLOUDY    36  33  89 SW16G26   29.47R
KALAMAZOO      CLOUDY    38  32  79 SW10      29.53R
STURGIS*       LGT SNOW  34  33  96 SW9       29.55R WCI  27
THREE RIVERS*  CLOUDY    37  35  92 SW9       29.55R

$$
OHZ001>008-015>018-024>025-231200-
NORTHWEST OHIO

CITY           SKY/WX    TMP DP  RH WIND       PRES   REMARKS
WAUSEON*       LGT RAIN  37  37 100 SW13G23   29.58R
DEFIANCE       LGT RAIN  36  33  89 SW9       29.60R
FINDLAY        LGT RAIN  38  33  82 W15       29.60R
TOLEDO EXPRESS LGT RAIN  39  35  86 SW18G26   29.57R
TOLEDO METCALF CLOUDY    38  34  85 SW15      29.59R
LIMA           LGT RAIN  37  36  96 SW13      29.61R

$$
AND FOR LAKE MICHIGAN COASTAL AND OPEN LAKE BUOY OBSERVATIONS

STATION/POSITION TEMP    WIND        PRES    VSBY  WAVE
                 AIR SEA DIR/SP/G                  HT/PER
                 (F)     (DEG/KT/KT) (MB)    (MI)  (FT/S)
CALUMET HARBOR    35     240/  7/ 12 1000.8R
MICHIGAN CITY     36     220/ 18/ 19   N/A
BURNS HARBOR      37     230/ 13/ 17 1001.7R
SAINT JOSEPH      35     210/ 11/ 13 1001.0

$$
&&




USA.gov is the U.S. government's official web portal to all federal, state and local government web resources and services.